Time,TemperatureF,DewpointF,PressureIn,WindDirection,WindDirectionDegrees,WindSpeedMPH,WindSpeedGustMPH,Humidity,HourlyPrecipIn,Conditions,Clouds,dailyrainin,SolarRadiationWatts/m^2,SoftwareType,DateUTC
2013-10-27 00:02:00,35.0,34.0,-100.00,West,264,2.0,5.0,97,0.00,,,0.01,0.000000,,2013-10-27 07:02:00,
2013-10-27 00:42:00,36.0,35.0,-100.00,South,179,1.0,5.0,97,0.00,,,0.01,0.000000,,2013-10-27 07:42:00,
2013-10-27 00:52:00,36.0,35.0,-100.00,South,179,1.0,5.0,97,0.00,,,0.01,0.000000,,2013-10-27 07:52:00,
2013-10-27 01:03:00,36.0,35.0,-100.00,South,179,1.0,5.0,97,0.00,,,0.01,0.000000,,2013-10-27 08:03:00,
2013-10-27 01:42:00,36.0,35.0,-100.00,ESE,106,1.0,4.0,97,0.00,,,0.01,0.000000,,2013-10-27 08:42:00,
2013-10-27 01:52:00,36.0,35.0,-100.00,ESE,106,1.0,4.0,97,0.00,,,0.01,0.000000,,2013-10-27 08:52:00,
2013-10-27 02:01:00,36.0,35.0,-100.00,ESE,106,1.0,4.0,97,0.00,,,0.01,0.000000,,2013-10-27 09:01:00,
2013-10-27 02:43:00,39.0,38.0,-100.00,SE,130,4.0,6.0,96,0.02,,,0.03,0.000000,,2013-10-27 09:43:00,
2013-10-27 02:54:00,39.0,38.0,-100.00,SE,130,4.0,6.0,96,0.02,,,0.03,0.000000,,2013-10-27 09:54:00,
2013-10-27 03:03:00,39.0,38.0,-100.00,SE,130,4.0,6.0,96,0.02,,,0.03,0.000000,,2013-10-27 10:03:00,
2013-10-27 03:42:00,40.0,39.0,-100.00,ESE,110,1.0,6.0,96,0.00,,,0.03,0.000000,,2013-10-27 10:42:00,
2013-10-27 03:53:00,40.0,39.0,-100.00,ESE,110,1.0,6.0,96,0.00,,,0.03,0.000000,,2013-10-27 10:53:00,
2013-10-27 04:02:00,40.0,39.0,-100.00,ESE,110,1.0,6.0,96,0.00,,,0.03,0.000000,,2013-10-27 11:02:00,
2013-10-27 04:42:00,39.0,38.0,-100.00,WNW,288,1.0,4.0,97,0.00,,,0.03,0.000000,,2013-10-27 11:42:00,
2013-10-27 04:52:00,39.0,38.0,-100.00,WNW,288,1.0,4.0,97,0.00,,,0.03,0.000000,,2013-10-27 11:52:00,
2013-10-27 05:01:00,39.0,38.0,-100.00,WNW,288,1.0,4.0,97,0.00,,,0.03,0.000000,,2013-10-27 12:01:00,
2013-10-27 05:42:00,37.0,36.0,-100.00,SSE,166,1.0,4.0,97,0.00,,,-99.99,0.000000,,2013-10-27 12:42:00,
2013-10-27 05:52:00,37.0,36.0,-100.00,SSE,166,1.0,4.0,97,0.00,,,-99.99,0.000000,,2013-10-27 12:52:00,
2013-10-27 06:02:00,37.0,36.0,-100.00,SSE,166,1.0,4.0,97,0.00,,,-99.99,0.000000,,2013-10-27 13:02:00,
2013-10-27 06:42:00,36.0,35.0,-100.00,SSE,161,2.0,5.0,97,0.00,,,0.03,0.000000,,2013-10-27 13:42:00,
2013-10-27 06:52:00,36.0,35.0,-100.00,SSE,161,2.0,5.0,97,0.00,,,0.03,0.000000,,2013-10-27 13:52:00,
2013-10-27 07:02:00,36.0,35.0,-100.00,SSE,161,2.0,5.0,97,0.00,,,0.03,0.000000,,2013-10-27 14:02:00,
2013-10-27 07:42:00,37.0,36.0,-100.00,SE,146,2.0,4.0,97,0.00,,,0.03,0.000000,,2013-10-27 14:42:00,
2013-10-27 07:52:00,37.0,36.0,-100.00,SE,146,2.0,4.0,97,0.00,,,0.03,0.000000,,2013-10-27 14:52:00,
2013-10-27 08:01:00,37.0,36.0,-100.00,SE,146,2.0,4.0,97,0.00,,,0.03,0.000000,,2013-10-27 15:01:00,
2013-10-27 08:44:00,39.0,38.0,-100.00,SW,235,2.0,9.0,96,0.02,,,0.05,1.000000,,2013-10-27 15:44:00,
2013-10-27 08:54:00,39.0,38.0,-100.00,SW,235,2.0,9.0,96,0.02,,,0.05,1.000000,,2013-10-27 15:54:00,
2013-10-27 09:04:00,39.0,38.0,-100.00,SW,235,2.0,9.0,96,0.02,,,0.05,1.000000,,2013-10-27 16:04:00,
2013-10-27 09:43:00,40.0,36.0,-100.00,WSW,251,5.0,13.0,87,0.00,,,-99.99,64.000000,,2013-10-27 16:43:00,
2013-10-27 09:53:00,40.0,36.0,-100.00,WSW,251,5.0,13.0,87,0.00,,,-99.99,64.000000,,2013-10-27 16:53:00,
2013-10-27 10:04:00,40.0,36.0,-100.00,WSW,251,5.0,13.0,87,0.00,,,-99.99,64.000000,,2013-10-27 17:04:00,
2013-10-27 10:43:00,44.0,37.0,-100.00,SW,230,5.0,12.0,76,0.00,,,0.04,203.000000,,2013-10-27 17:43:00,
2013-10-27 10:53:00,44.0,37.0,-100.00,SW,230,5.0,12.0,76,0.00,,,0.04,203.000000,,2013-10-27 17:53:00,
2013-10-27 11:01:00,44.0,37.0,-100.00,SW,230,5.0,12.0,76,0.00,,,0.04,203.000000,,2013-10-27 18:01:00,
2013-10-27 11:43:00,41.0,36.0,-100.00,West,266,4.0,11.0,82,0.00,,,0.04,117.000000,,2013-10-27 18:43:00,
2013-10-27 11:52:00,41.0,36.0,-100.00,West,266,4.0,11.0,82,0.00,,,0.04,117.000000,,2013-10-27 18:52:00,
2013-10-27 12:02:00,41.0,36.0,-100.00,West,266,4.0,11.0,82,0.00,,,0.04,117.000000,,2013-10-27 19:02:00,
2013-10-27 12:42:00,41.0,36.0,-100.00,SW,220,6.0,13.0,81,0.00,,,0.04,67.000000,,2013-10-27 19:42:00,
2013-10-27 12:52:00,41.0,36.0,-100.00,SW,220,6.0,13.0,81,0.00,,,0.04,67.000000,,2013-10-27 19:52:00,
2013-10-27 13:02:00,41.0,36.0,-100.00,SW,220,6.0,13.0,81,0.00,,,0.04,67.000000,,2013-10-27 20:02:00,
2013-10-27 13:43:00,41.0,36.0,-100.00,SW,233,4.0,12.0,81,0.00,,,0.04,80.000000,,2013-10-27 20:43:00,
2013-10-27 13:52:00,41.0,36.0,-100.00,SW,233,4.0,12.0,81,0.00,,,0.04,80.000000,,2013-10-27 20:52:00,
2013-10-27 14:02:00,41.0,36.0,-100.00,SW,233,4.0,12.0,81,0.00,,,0.04,80.000000,,2013-10-27 21:02:00,
2013-10-27 14:43:00,40.0,36.0,-100.00,SW,220,7.0,14.0,84,0.00,,,0.04,59.000000,,2013-10-27 21:43:00,
2013-10-27 14:54:00,40.0,36.0,-100.00,SW,220,7.0,14.0,84,0.00,,,0.04,59.000000,,2013-10-27 21:54:00,
2013-10-27 15:04:00,40.0,36.0,-100.00,SW,220,7.0,14.0,84,0.00,,,0.04,59.000000,,2013-10-27 22:04:00,
2013-10-27 15:43:00,40.0,36.0,-100.00,SW,229,4.0,17.0,85,0.00,,,0.04,72.000000,,2013-10-27 22:43:00,
2013-10-27 15:54:00,40.0,36.0,-100.00,SW,229,4.0,17.0,85,0.00,,,0.04,72.000000,,2013-10-27 22:54:00,
2013-10-27 16:03:00,40.0,36.0,-100.00,SW,229,4.0,17.0,85,0.00,,,0.04,72.000000,,2013-10-27 23:03:00,
2013-10-27 16:42:00,40.0,37.0,-100.00,WNW,301,3.0,10.0,88,0.00,,,0.04,38.000000,,2013-10-27 23:42:00,
2013-10-27 16:52:00,40.0,37.0,-100.00,WNW,301,3.0,10.0,88,0.00,,,0.04,38.000000,,2013-10-27 23:52:00,
2013-10-27 17:02:00,40.0,37.0,-100.00,WNW,301,3.0,10.0,88,0.00,,,0.04,38.000000,,2013-10-28 00:02:00,
2013-10-27 17:43:00,41.0,37.0,-100.00,WNW,299,6.0,19.0,84,0.01,,,0.05,39.000000,,2013-10-28 00:43:00,
2013-10-27 17:52:00,41.0,37.0,-100.00,WNW,299,6.0,19.0,84,0.01,,,0.05,39.000000,,2013-10-28 00:52:00,
2013-10-27 18:01:00,41.0,37.0,-100.00,WNW,299,6.0,19.0,84,0.01,,,0.05,39.000000,,2013-10-28 01:01:00,
2013-10-27 18:42:00,41.0,36.0,-100.00,WNW,296,5.0,15.0,83,0.00,,,0.05,8.000000,,2013-10-28 01:42:00,
2013-10-27 18:52:00,41.0,36.0,-100.00,WNW,296,5.0,15.0,83,0.00,,,0.05,8.000000,,2013-10-28 01:52:00,
2013-10-27 19:02:00,41.0,36.0,-100.00,WNW,296,5.0,15.0,83,0.00,,,0.05,8.000000,,2013-10-28 02:02:00,
2013-10-27 19:42:00,41.0,35.0,-100.00,WNW,300,4.0,13.0,79,0.00,,,0.05,0.000000,,2013-10-28 02:42:00,
2013-10-27 19:53:00,41.0,35.0,-100.00,WNW,300,4.0,13.0,79,0.00,,,0.05,0.000000,,2013-10-28 02:53:00,
2013-10-27 20:02:00,41.0,35.0,-100.00,WNW,300,4.0,13.0,79,0.00,,,0.05,0.000000,,2013-10-28 03:02:00,
2013-10-27 20:44:00,41.0,34.0,-100.00,WNW,295,5.0,14.0,77,0.00,,,0.05,0.000000,,2013-10-28 03:44:00,
2013-10-27 20:54:00,41.0,34.0,-100.00,WNW,295,5.0,14.0,77,0.00,,,0.05,0.000000,,2013-10-28 03:54:00,
2013-10-27 21:04:00,41.0,34.0,-100.00,WNW,295,5.0,14.0,77,0.00,,,0.05,0.000000,,2013-10-28 04:04:00,
2013-10-27 21:43:00,40.0,31.0,-100.00,WNW,290,6.0,13.0,69,0.00,,,0.05,0.000000,,2013-10-28 04:43:00,
2013-10-27 21:53:00,40.0,31.0,-100.00,WNW,290,6.0,13.0,69,0.00,,,0.05,0.000000,,2013-10-28 04:53:00,
2013-10-27 22:04:00,40.0,31.0,-100.00,WNW,290,6.0,13.0,69,0.00,,,0.05,0.000000,,2013-10-28 05:04:00,
2013-10-27 22:43:00,38.0,31.0,-100.00,West,274,5.0,12.0,76,0.00,,,0.05,0.000000,,2013-10-28 05:43:00,
2013-10-27 22:53:00,38.0,31.0,-100.00,West,274,5.0,12.0,76,0.00,,,0.05,0.000000,,2013-10-28 05:53:00,
2013-10-27 23:02:00,38.0,31.0,-100.00,West,274,5.0,12.0,76,0.00,,,0.05,0.000000,,2013-10-28 06:02:00,
2013-10-27 23:43:00,38.0,30.0,-100.00,West,281,5.0,13.0,73,0.00,,,0.05,0.000000,,2013-10-28 06:43:00,
2013-10-27 23:52:00,38.0,30.0,-100.00,West,281,5.0,13.0,73,0.00,,,0.05,0.000000,,2013-10-28 06:52:00,